Find AMRAD-OSCAR-27

NORAD ID: 22825 Int'l Des: 1993-061 Owner: INFER Country: US operational
LEOCIRCULARRETROGRADESSO

リアルタイム位置

3D地球を読み込み中...

AMRAD-OSCAR-27について

説明を読み込み中...

次回通過

Passes for default location (London). Set your location on the main map for personalized predictions.

高度履歴

Loading altitude history...

軌道要素

1 22825U 93061C 26105.76722831 .00000042 00000-0 33127-4 0 9994
2 22825 98.6916 173.1921 0007245 285.3557 74.6825 14.30925163698073
Epoch: Apr 15, 2026 • Age: 9 hours

現在のステータス

高度 806.6 km
速度 7.45 km/s
衛星直下点 -55.15°S, 78.1°E
打ち上げ日 Sep 26, 1993
運用期間 32.5 years
タイプ other

技術仕様

分類 Payload
質量 12.00 kg
乾燥質量 12.00 kg
総質量 12.00 kg
長さ 0.30 m
直径 0.30 m
スパン 0.30 m
形状 Cube
製造者 INFER
バスタイプ Microsat
フェーズステータス In Orbit
所有者/国 INFER/US

Most Searched